Regional Weather Roundup
Issued by NWS

Home | Current Version | Previous Version | Text Only | Print | Product List | Glossary Off
Versions: 1 2 3 4 5 6 7 8 9 10 11 12 13 14 15 16 17 18 19 20 21 22 23 24 25 26 27 28 29 30 31 32 33 34 35 36 37 38 39 40 41 42 43 44 45 46 47 48 49 50

000
ASUS43 KMPX 272010
RWRMN
WEATHER ROUNDUP FOR MINNESOTA
NATIONAL WEATHER SERVICE TWIN CITIES/CHANHASSEN MN
300 PM CDT FRI MAY 27 2016


NOTE: "FAIR" INDICATES FEW OR NO CLOUDS BELOW 12,000 FEET WITH NO
SIGNIFICANT WEATHER AND/OR OBSTRUCTIONS TO VISIBILITY. N/A MEANS
CURRENT SKY AND/OR WEATHER CONDITIONS ARE NOT AVAILABLE.

MNZ060>063-068>070-272100-
   Twin Cities Metro

CITY           SKY/WX    TMP DP  RH WIND       PRES   REMARKS
TWIN CITIES    LGT RAIN  64  60  87 NE8       29.79F FOG
ST PAUL        LGT RAIN  64  62  93 NW7       29.79F
CRYSTAL        LGT RAIN  64  59  83 N6        29.79S
BLAINE         LGT RAIN  64  63  94 NW5       29.80
EDEN PRAIRIE   LGT RAIN  65  60  84 NE6       29.78F
SOUTH ST PAUL  LGT RAIN  64  62  92 NW5       29.79F
LAKE ELMO      LGT RAIN  64  63  94 CALM      29.80F
$$
MNZ001>005-007-008-013>017-022>024-027-028-272100-
   Northwest Minnesota

CITY           SKY/WX    TMP DP  RH WIND       PRES   REMARKS
BEMIDJI        CLOUDY    67  56  67 SE22G30   29.83S
HALLOCK        CLOUDY    72  52  49 W5        29.78F
ROSEAU         PTSUNNY   73  63  68 N5        29.78F
WARROAD        PTSUNNY   70  61  73 NE9       29.80F
THIEF RVR FALL PTSUNNY   72  54  53 CALM      29.79S
CROOKSTON      CLOUDY    72  59  64 N7        29.78S
FOSSTON        PTSUNNY   70  57  64 SE14G21   29.78S
DETROIT LAKES  CLOUDY    72  57  60 SE16      29.78F
MOORHEAD       CLOUDY    63  59  88 NE8G40    29.76R VSB 3/4
PARK RAPIDS    CLOUDY    68  58  70 E13       29.81S
MAHNOMEN       FAIR      71  55  58 SE14      29.76S
$$
MNZ006-009>011-018-025>026-272100-
   North Central Minnesota

CITY           SKY/WX    TMP DP  RH WIND       PRES   REMARKS
BAUDETTE       LGT RAIN  68  56  65 S13G25    29.81R
FLAG ISLAND    MOSUNNY   66  55  68 CALM      29.80F
INTL FALLS     CLOUDY    66  56  70 S9        29.86S
WASKISH        CLOUDY    66  57  72 SE14G23   29.84R
BIG FORK       RAIN      61  57  88 SE5       29.89S
LONGVILLE      RAIN      59  57  94 CALM      29.87R
GRAND RAPIDS   LGT RAIN  59  58  96 CALM      29.90S
CRANE LAKE     CLOUDY    63  55  77 S8        29.91S
ORR            DRIZZLE   59  54  82 CALM      29.89S
COOK           LGT RAIN  59  57  94 SE3       29.92S
WALKER         LGT RAIN  59  57  93 E10G18    29.85S
$$
MNZ012-019>021-037-272100-
   Northeast Minnesota

CITY           SKY/WX    TMP DP  RH WIND       PRES   REMARKS
DULUTH         LGT RAIN  55  53  93 E7        29.87F
ELY            LGT RAIN  61  57  88 SW5       29.92S
HIBBING        LGT RAIN  60  58  92 NE6       29.89F
EVELETH        LGT RAIN  59  55  88 NE7       29.91F
DULUTH HARBOR  RAIN      45  45 100 N7        29.89F
TWO HARBORS      N/A     68  61  77 E9        29.86S
SILVER BAY     DRIZZLE   66  59  77 N3        29.87F
GRAND MARAIS     N/A     44  41  89 CALM      29.92F
G MARAIS ARPRT DRIZZLE   63  52  67 CALM      29.95F
$$
MNZ029>031-032-039>041-046>048-054>057-064-272100-
   West Central Minnesota

CITY           SKY/WX    TMP DP  RH WIND       PRES   REMARKS
FERGUS FALLS   CLOUDY    70  61  73 SE10      29.73S
WHEATON        PTSUNNY   72  57  60 S8        29.77S
MORRIS         LGT RAIN  64  63  94 NE6       29.76F
ALEXANDRIA     CLOUDY    64  61  90 NW5       29.79F
ELBOW LAKE     LGT RAIN  64  61  89 E7        29.78R
WADENA         LGT RAIN  64  59  82 SE12      29.80R
GLENWOOD       PTSUNNY   72  57  60 SE10      29.78F
APPLETON       CLOUDY    72  59  64 NE5       29.75S
BENSON         PTSUNNY   66  59  77 N6        29.76F
ORTONVILLE     DRIZZLE   64  59  82 N9        29.76S
MADISON        CLOUDY    70  57  64 CALM      29.76S
WILLMAR        FAIR      73  61  64 E16       29.77F
$$
MNZ033>034-036-042>043-049>051-058-059-272100-
   Central Minnesota

CITY           SKY/WX    TMP DP  RH WIND       PRES   REMARKS
ST CLOUD       CLOUDY    63  61  93 E6        29.80F
SAUK CENTRE    MOCLDY    68  60  75 E9        29.79F
PAYNESVILLE    CLOUDY    66  60  80 E9        29.80S
AITKIN         MIX PCPN  64  57  77 CALM      29.84S
PINE RIVER     RAIN      61  61 100 E9        29.88S
BRAINERD       HVY RAIN  59  57  93 VRB3      29.85R FOG
STAPLES        LGT RAIN  64  59  82 SE7       29.82R
LONG PRAIRIE   LGT RAIN  63  61  94 NE8       29.81S
LITTLE FALLS   LGT RAIN  61  59  94 SE8       29.82S
LITCHFIELD     CLOUDY    64  64 100 E5        29.80R
BUFFALO        CLOUDY    63  58  86 NE9       29.81S
MAPLE LAKE     CLOUDY    64  62  91 E8        29.81S FOG
HUTCHINSON     CLOUDY    67  64  89 E7        29.79S
$$
MNZ037-044-045-052-053-272100-
   East Central Minnesota

CITY           SKY/WX    TMP DP  RH WIND       PRES   REMARKS
PRINCETON      LGT RAIN  63  61  94 CALM      29.81F
MORA           LGT RAIN  59  57  94 NW6       29.83F
CAMBRIDGE      RAIN      64  55  72 NW3       29.79S
RUSH CITY      LGT RAIN  63  61  93 N3        29.81S
MOOSE LAKE     LGT RAIN  57  55  94 NE6       29.84S
HINCKLEY       LGT RAIN  64  63  94 NE5       29.83R
CLOQUET        DRIZZLE   55  54  94 E7        29.87R
MCGREGOR       CLOUDY    63  61  94 N5        29.86S
$$
MNZ071>073-080-081-089-090-097-098-272100-
   Southwest Minnesota

CITY           SKY/WX    TMP DP  RH WIND       PRES   REMARKS
MONTEVIDEO     LGT RAIN  66  57  72 N6        29.77F
GRANITE FALLS  CLOUDY    74  58  58 W10       29.77R
CANBY          MOSUNNY   74  59  59 SW7       29.77F
MARSHALL       PTSUNNY   73  55  53 VRB6      29.76S
REDWOOD FALLS  CLOUDY    68  59  73 NE8       29.75S
OLIVIA         RAIN      68  57  68 W5        29.77R
PIPESTONE      LGT RAIN  68  57  68 NW7       29.79R
WINDOM         CLOUDY    70  57  64 CALM      29.77S
WORTHINGTON    CLOUDY    70  57  63 SW5       29.79R
JACKSON        PTSUNNY   72  55  56 SW5       29.77F
TRACY          CLOUDY    73  55  53 CALM      29.77R
SLAYTON        CLOUDY    71  50  46 CALM      29.79R
$$
MNZ065>067-074>077-082>085-091>093-272100-
   South Central Minnesota

CITY           SKY/WX    TMP DP  RH WIND       PRES   REMARKS
MANKATO        CLOUDY    66  59  77 SE8       29.78S
NEW ULM        PTSUNNY   66  63  88 E6        29.77S
ST JAMES       PTSUNNY   66  55  68 S5        29.77F
FAIRMONT       PTSUNNY   72  57  60 S6        29.76S
GLENCOE        RAIN      68  64  88 E9        29.78S
FARIBAULT      CLOUDY    64  63  94 N3        29.78F
OWATONNA       RAIN      64  61  88 NE6       29.77F
WASECA         CLOUDY    64  59  82 CALM      29.79R
ALBERT LEA     CLOUDY    66  63  88 N5        29.77R
$$
MNZ078>079-086>088-094>096-272100-
   Southeast Minnesota

CITY           SKY/WX    TMP DP  RH WIND       PRES   REMARKS
ROCHESTER      RAIN      66  66 100 N3        29.76F FOG
RED WING       RAIN      66  64  94 CALM      29.76F
STANTON        DRIZZLE   66  62  85 NE7       29.76F
DODGE CENTER   RAIN      64  63  94 NE5       29.78S
WINONA         LGT RAIN  70  63  78 SE7       29.75F
AUSTIN         CLOUDY    64  63  94 CALM      29.76F
PRESTON        LGT RAIN  67  64  89 SE10G17   29.76F
$$
ABBREVIATIONS USED IN REMARKS
   TC - TEMPERATURES IN CELSIUS
  WCI - WIND CHILL INDEX
   HX - HEAT INDEX
  VSB - VISIBILITY
$$




USA.gov is the U.S. government's official web portal to all federal, state and local government web resources and services.